Stündliche Wetter Abramovo

Heute, 22 Juni, Dienstag

Zeit Temperatur Niederschläge Wind Luftdruck Luftfeuchtigkeit
00:00 +21°C° 0 mm 3 m/S 748 mmHg 91%
01:00 +20°C° 0 mm 3 m/S 748 mmHg 93%
02:00 +20°C° 0 mm 2 m/S 748 mmHg 96%
03:00 +20°C° 0 mm 2 m/S 748 mmHg 95%
04:00 +20°C° 0 mm 3 m/S 748 mmHg 94%
05:00 +21°C° 0 mm 3 m/S 748 mmHg 93%
06:00 +22°C° 0 mm 3 m/S 748 mmHg 85%
07:00 +25°C° 0 mm 4 m/S 748 mmHg 77%
08:00 +26°C° 0 mm 4 m/S 748 mmHg 69%
09:00 +27°C° 0 mm 4 m/S 748 mmHg 63%
10:00 +29°C° 0 mm 5 m/S 748 mmHg 58%
11:00 +30°C° 0 mm 5 m/S 748 mmHg 53%
12:00 +30°C° 0 mm 5 m/S 748 mmHg 51%
13:00 +32°C° 0 mm 5 m/S 748 mmHg 50%
14:00 +32°C° 0 mm 5 m/S 748 mmHg 48%
15:00 +32°C° 0 mm 4 m/S 748 mmHg 51%
16:00 +32°C° 0 mm 4 m/S 748 mmHg 54%
17:00 +31°C° 0 mm 3 m/S 748 mmHg 56%
18:00 +29°C° 0 mm 3 m/S 748 mmHg 64%
19:00 +27°C° 0 mm 2 m/S 748 mmHg 72%
20:00 +25°C° 0 mm 2 m/S 748 mmHg 79%
21:00 +24°C° 0 mm 2 m/S 748 mmHg 81%
22:00 +23°C° 0 mm 2 m/S 748 mmHg 84%
23:00 +21°C° 0 mm 2 m/S 748 mmHg 86%

Morgen, 23 Juni, Mittwoch

Zeit Temperatur Niederschläge Wind Luftdruck Luftfeuchtigkeit
00:00 +21°C° 0 mm 2 m/S 749 mmHg 88%
01:00 +20°C° 0 mm 2 m/S 749 mmHg 90%
02:00 +19°C° 0 mm 2 m/S 749 mmHg 93%
03:00 +20°C° 0 mm 2 m/S 749 mmHg 92%
04:00 +20°C° 0 mm 2 m/S 749 mmHg 92%
05:00 +20°C° 0 mm 2 m/S 749 mmHg 91%
06:00 +23°C° 0 mm 2 m/S 749 mmHg 83%
07:00 +25°C° 0 mm 3 m/S 749 mmHg 75%
08:00 +27°C° 0 mm 3 m/S 749 mmHg 67%
09:00 +28°C° 0 mm 3 m/S 750 mmHg 63%
10:00 +30°C° 0 mm 4 m/S 750 mmHg 58%
11:00 +32°C° 0 mm 4 m/S 750 mmHg 54%
12:00 +33°C° 0 mm 4 m/S 749 mmHg 52%
13:00 +33°C° 0 mm 4 m/S 749 mmHg 51%
14:00 +34°C° 0 mm 4 m/S 749 mmHg 50%
15:00 +33°C° 0 mm 4 m/S 749 mmHg 53%
16:00 +33°C° 0 mm 3 m/S 749 mmHg 56%
17:00 +33°C° 0 mm 3 m/S 749 mmHg 59%
18:00 +30°C° 0 mm 2 m/S 749 mmHg 66%
19:00 +28°C° 0 mm 2 m/S 749 mmHg 73%
20:00 +26°C° 0 mm 2 m/S 749 mmHg 80%
21:00 +26°C° 0 mm 2 m/S 749 mmHg 82%
22:00 +25°C° 0 mm 2 m/S 749 mmHg 83%
23:00 +24°C° 0 mm 2 m/S 749 mmHg 85%

übermorgen, 24 Juni, Donnerstag

Zeit Temperatur Niederschläge Wind Luftdruck Luftfeuchtigkeit
00:00 +23°C° 0 mm 2 m/S 749 mmHg 86%
01:00 +23°C° 0 mm 2 m/S 749 mmHg 87%
02:00 +21°C° 0 mm 2 m/S 749 mmHg 89%
03:00 +21°C° 0 mm 2 m/S 749 mmHg 88%
04:00 +23°C° 0 mm 1 m/S 749 mmHg 87%
05:00 +23°C° 0 mm 1 m/S 749 mmHg 86%
06:00 +25°C° 0 mm 2 m/S 749 mmHg 79%
07:00 +27°C° 0 mm 2 m/S 749 mmHg 72%
08:00 +28°C° 0 mm 2 m/S 749 mmHg 65%
09:00 +29°C° 0 mm 3 m/S 749 mmHg 61%
10:00 +30°C° 0 mm 3 m/S 749 mmHg 56%
11:00 +33°C° 0 mm 3 m/S 749 mmHg 52%
12:00 +33°C° 0 mm 3 m/S 749 mmHg 49%
13:00 +34°C° 0 mm 3 m/S 749 mmHg 47%
14:00 +34°C° 0 mm 3 m/S 749 mmHg 44%
15:00 +34°C° 0 mm 3 m/S 748 mmHg 48%
16:00 +32°C° 0 mm 2 m/S 748 mmHg 51%
17:00 +32°C° 0 mm 2 m/S 748 mmHg 55%
18:00 +30°C° 0 mm 2 m/S 748 mmHg 63%
19:00 +29°C° 0 mm 2 m/S 747 mmHg 72%
20:00 +27°C° 0 mm 2 m/S 747 mmHg 80%
21:00 +26°C° 0.1 mm 2 m/S 747 mmHg 82%
22:00 +25°C° 0.1 mm 2 m/S 747 mmHg 84%
23:00 +24°C° 0.1 mm 2 m/S 747 mmHg 86%

25 Juni, Freitag

Zeit Temperatur Niederschläge Wind Luftdruck Luftfeuchtigkeit
00:00 +23°C° 0.7 mm 2 m/S 747 mmHg 89%
01:00 +22°C° 0.7 mm 1 m/S 747 mmHg 92%
02:00 +21°C° 0.7 mm 1 m/S 747 mmHg 95%
03:00 +21°C° 0.1 mm 1 m/S 747 mmHg 95%
04:00 +21°C° 0.1 mm 2 m/S 747 mmHg 95%
05:00 +21°C° 0.1 mm 2 m/S 746 mmHg 94%
06:00 +24°C° 0 mm 2 m/S 747 mmHg 87%
07:00 +26°C° 0 mm 3 m/S 747 mmHg 80%
08:00 +27°C° 0 mm 3 m/S 747 mmHg 73%
09:00 +29°C° 0 mm 3 m/S 747 mmHg 67%
10:00 +30°C° 0 mm 3 m/S 747 mmHg 61%
11:00 +31°C° 0 mm 3 m/S 747 mmHg 55%
12:00 +31°C° 0 mm 3 m/S 747 mmHg 54%
13:00 +33°C° 0 mm 3 m/S 747 mmHg 53%
14:00 +33°C° 0 mm 3 m/S 746 mmHg 52%
15:00 +31°C° 0.3 mm 3 m/S 746 mmHg 58%
16:00 +29°C° 0.3 mm 4 m/S 746 mmHg 63%
17:00 +28°C° 0.3 mm 4 m/S 745 mmHg 68%
18:00 +26°C° 0.1 mm 3 m/S 745 mmHg 73%
19:00 +23°C° 0.1 mm 2 m/S 746 mmHg 78%
20:00 +21°C° 0.1 mm 1 m/S 746 mmHg 83%
21:00 +21°C° 0 mm 1 m/S 745 mmHg 84%
22:00 +20°C° 0 mm 1 m/S 745 mmHg 84%
23:00 +20°C° 0 mm 1 m/S 745 mmHg 85%

26 Juni, Samstag

Zeit Temperatur Niederschläge Wind Luftdruck Luftfeuchtigkeit
00:00 +20°C° 0 mm 1 m/S 745 mmHg 85%
01:00 +19°C° 0 mm 1 m/S 745 mmHg 86%
02:00 +19°C° 0 mm 1 m/S 745 mmHg 86%
03:00 +20°C° 0 mm 1 m/S 745 mmHg 87%
04:00 +20°C° 0 mm 1 m/S 745 mmHg 87%
05:00 +20°C° 0 mm 1 m/S 745 mmHg 87%
06:00 +22°C° 0 mm 1 m/S 745 mmHg 81%
07:00 +24°C° 0 mm 1 m/S 745 mmHg 74%
08:00 +25°C° 0 mm 1 m/S 745 mmHg 68%
09:00 +27°C° 0 mm 2 m/S 745 mmHg 65%
10:00 +28°C° 0 mm 2 m/S 745 mmHg 61%
11:00 +29°C° 0 mm 2 m/S 745 mmHg 57%
12:00 +30°C° 0 mm 2 m/S 745 mmHg 56%
13:00 +30°C° 0 mm 2 m/S 745 mmHg 55%
14:00 +31°C° 0 mm 2 m/S 745 mmHg 54%
15:00 +31°C° 0 mm 2 m/S 745 mmHg 56%
16:00 +31°C° 0 mm 2 m/S 745 mmHg 58%
17:00 +31°C° 0 mm 2 m/S 745 mmHg 59%
18:00 +29°C° 0.2 mm 2 m/S 745 mmHg 68%
19:00 +27°C° 0.2 mm 2 m/S 745 mmHg 76%
20:00 +25°C° 0.2 mm 2 m/S 745 mmHg 84%
21:00 +24°C° 0.2 mm 2 m/S 745 mmHg 86%
22:00 +23°C° 0.2 mm 2 m/S 745 mmHg 89%
23:00 +23°C° 0.2 mm 2 m/S 745 mmHg 91%

27 Juni, Sonntag

Zeit Temperatur Niederschläge Wind Luftdruck Luftfeuchtigkeit
00:00 +21°C° 0.3 mm 2 m/S 745 mmHg 92%
01:00 +21°C° 0.3 mm 2 m/S 745 mmHg 94%
02:00 +20°C° 0.3 mm 2 m/S 745 mmHg 95%
03:00 +20°C° 0 mm 2 m/S 745 mmHg 94%
04:00 +22°C° 0 mm 1 m/S 746 mmHg 94%
05:00 +22°C° 0 mm 1 m/S 746 mmHg 93%
06:00 +24°C° 0 mm 1 m/S 746 mmHg 87%
07:00 +25°C° 0 mm 1 m/S 746 mmHg 81%
08:00 +27°C° 0 mm 1 m/S 746 mmHg 74%
09:00 +28°C° 0.8 mm 1 m/S 746 mmHg 72%
10:00 +29°C° 0.8 mm 2 m/S 746 mmHg 70%
11:00 +29°C° 0.8 mm 2 m/S 746 mmHg 68%
12:00 +30°C° 0.1 mm 2 m/S 746 mmHg 63%
13:00 +31°C° 0.1 mm 2 m/S 746 mmHg 58%
14:00 +31°C° 0.1 mm 2 m/S 746 mmHg 53%
15:00 +30°C° 0.6 mm 2 m/S 746 mmHg 61%
16:00 +28°C° 0.6 mm 3 m/S 746 mmHg 70%
17:00 +26°C° 0.6 mm 4 m/S 746 mmHg 78%
18:00 +25°C° 0.4 mm 3 m/S 746 mmHg 81%
19:00 +24°C° 0.4 mm 3 m/S 746 mmHg 84%
20:00 +23°C° 0.4 mm 2 m/S 746 mmHg 86%
21:00 +23°C° 0 mm 2 m/S 746 mmHg 87%
22:00 +21°C° 0 mm 2 m/S 746 mmHg 88%
23:00 +20°C° 0 mm 3 m/S 746 mmHg 89%
Mehr zeigen

Wir brauchen deine Erlaubnis

Meteoprog und unser Service Anbieter werden persönliche Daten aufbewahren, so wie Cookies, Geräte Bezeichnung oder ähnliche Technologien von deinem Gerät und Prozess, so wie Persönliche Daten Inhalte und Werbungen, genauso wie social Media und den Verkehr zu analysieren.

  • Aufbewahrung und/oder Zugang zu deiner Geräte Informationen.

    Cookies, Geräte Bezeichnung oder andere Informationen, können aufbewahrt oder Zugang zu deinem Gerät erhalten, für den Grund, der oben angegeben wird.

  • Personalisierte Werbung und Inhalte, Messungen, Einblick in das Publikum und Produkt Entwicklung.

    Werbungen und Inhalte können personalisiert werden, basierend auf ein Profil. Mehr Daten können besser personalisierte Werbungen und Inhalte hinzufügen. Werbung und Inhalte können gezeigt und gemessen werden. Einblicke über das Publikum, welche die Werbung gesehen haben und den Inhalt, können abgeleitet werden. So wie Daten können genutzt werden, um es zu verbessern oder die Benutzer Erfahrung zu verbessern das System und die Software.

Wenn du “Ich stimme zu” klickst, erlaubst du uns, die Cookies zu benutzen die Geräte Bezeichnung, den Web oder ähnliche Technologien zu benutzen. Deine Settings, können in deinem Gerät bei deinem Browser geändert werden.

Für den bestimmten Zweck, berechtigten Interessen beruhen darauf, mehr als auf den Inhalt. Du kannst mehr darüber in unseren Privaten und Cookie Politik lesen.